Time,TemperatureF,DewpointF,PressureIn,WindDirection,WindDirectionDegrees,WindSpeedMPH,WindSpeedGustMPH,Humidity,HourlyPrecipIn,Conditions,Clouds,dailyrainin,SolarRadiationWatts/m^2,SoftwareType,DateUTC
2013-01-03 00:01:00,20.0,9.0,-100.00,WNW,294,10.0,14.0,61,0.00,,,0.00,0.000000,,2013-01-03 07:01:00,
2013-01-03 00:22:00,20.0,9.0,-100.00,WNW,294,10.0,14.0,61,0.00,,,0.00,0.000000,,2013-01-03 07:22:00,
2013-01-03 00:33:00,20.0,9.0,-100.00,WNW,294,10.0,14.0,61,0.00,,,0.00,0.000000,,2013-01-03 07:33:00,
2013-01-03 00:43:00,20.0,9.0,-100.00,WNW,294,10.0,14.0,61,0.00,,,0.00,0.000000,,2013-01-03 07:43:00,
2013-01-03 00:53:00,20.0,9.0,-100.00,WNW,294,10.0,14.0,61,0.00,,,0.00,0.000000,,2013-01-03 07:53:00,
2013-01-03 01:01:00,22.0,8.0,-100.00,West,272,11.0,15.0,53,0.00,,,-99.99,0.000000,,2013-01-03 08:01:00,
2013-01-03 01:23:00,22.0,8.0,-100.00,West,272,11.0,15.0,53,0.00,,,-99.99,0.000000,,2013-01-03 08:23:00,
2013-01-03 01:33:00,22.0,8.0,-100.00,West,272,11.0,15.0,53,0.00,,,-99.99,0.000000,,2013-01-03 08:33:00,
2013-01-03 01:43:00,22.0,8.0,-100.00,West,272,11.0,15.0,53,0.00,,,-99.99,0.000000,,2013-01-03 08:43:00,
2013-01-03 01:53:00,22.0,8.0,-100.00,West,272,11.0,15.0,53,0.00,,,-99.99,0.000000,,2013-01-03 08:53:00,
2013-01-03 02:01:00,20.0,8.0,-100.00,West,264,11.0,19.0,60,0.00,,,0.00,0.000000,,2013-01-03 09:01:00,
2013-01-03 02:23:00,20.0,8.0,-100.00,West,264,11.0,19.0,60,0.00,,,0.00,0.000000,,2013-01-03 09:23:00,
2013-01-03 02:34:00,20.0,8.0,-100.00,West,264,11.0,19.0,60,0.00,,,0.00,0.000000,,2013-01-03 09:34:00,
2013-01-03 02:43:00,20.0,8.0,-100.00,West,264,11.0,19.0,60,0.00,,,0.00,0.000000,,2013-01-03 09:43:00,
2013-01-03 02:53:00,20.0,8.0,-100.00,West,264,11.0,19.0,60,0.00,,,0.00,0.000000,,2013-01-03 09:53:00,
2013-01-03 03:01:00,21.0,3.0,-100.00,West,264,15.0,19.0,45,0.00,,,0.00,0.000000,,2013-01-03 10:01:00,
2013-01-03 03:33:00,21.0,3.0,-100.00,West,264,15.0,19.0,45,0.00,,,0.00,0.000000,,2013-01-03 10:33:00,
2013-01-03 03:43:00,21.0,3.0,-100.00,West,264,15.0,19.0,45,0.00,,,0.00,0.000000,,2013-01-03 10:43:00,
2013-01-03 03:53:00,21.0,3.0,-100.00,West,264,15.0,19.0,45,0.00,,,0.00,0.000000,,2013-01-03 10:53:00,
2013-01-03 04:01:00,21.0,4.0,-100.00,West,259,18.0,24.0,47,0.00,,,0.00,0.000000,,2013-01-03 11:01:00,
2013-01-03 04:33:00,21.0,4.0,-100.00,West,259,18.0,24.0,47,0.00,,,0.00,0.000000,,2013-01-03 11:33:00,
2013-01-03 04:43:00,21.0,4.0,-100.00,West,259,18.0,24.0,47,0.00,,,0.00,0.000000,,2013-01-03 11:43:00,
2013-01-03 04:53:00,21.0,4.0,-100.00,West,259,18.0,24.0,47,0.00,,,0.00,0.000000,,2013-01-03 11:53:00,
2013-01-03 05:01:00,24.0,3.0,-100.00,West,263,19.0,26.0,39,0.00,,,0.00,0.000000,,2013-01-03 12:01:00,
2013-01-03 05:22:00,24.0,3.0,-100.00,West,263,19.0,26.0,39,0.00,,,0.00,0.000000,,2013-01-03 12:22:00,
2013-01-03 05:33:00,24.0,3.0,-100.00,West,263,19.0,26.0,39,0.00,,,0.00,0.000000,,2013-01-03 12:33:00,
2013-01-03 05:43:00,24.0,3.0,-100.00,West,263,19.0,26.0,39,0.00,,,0.00,0.000000,,2013-01-03 12:43:00,
2013-01-03 05:53:00,24.0,3.0,-100.00,West,263,19.0,26.0,39,0.00,,,0.00,0.000000,,2013-01-03 12:53:00,
2013-01-03 06:01:00,25.0,0.0,-100.00,WSW,256,17.0,26.0,33,0.00,,,0.00,0.000000,,2013-01-03 13:01:00,
2013-01-03 06:22:00,25.0,0.0,-100.00,WSW,256,17.0,26.0,33,0.00,,,0.00,0.000000,,2013-01-03 13:22:00,
2013-01-03 06:33:00,25.0,0.0,-100.00,WSW,256,17.0,26.0,33,0.00,,,0.00,0.000000,,2013-01-03 13:33:00,
2013-01-03 06:43:00,25.0,0.0,-100.00,WSW,256,17.0,26.0,33,0.00,,,0.00,0.000000,,2013-01-03 13:43:00,
2013-01-03 06:53:00,25.0,0.0,-100.00,WSW,256,17.0,26.0,33,0.00,,,0.00,0.000000,,2013-01-03 13:53:00,
2013-01-03 07:01:00,26.0,0.0,-100.00,WSW,255,16.0,22.0,32,0.00,,,0.00,0.000000,,2013-01-03 14:01:00,
2013-01-03 07:33:00,26.0,0.0,-100.00,WSW,255,16.0,22.0,32,0.00,,,0.00,0.000000,,2013-01-03 14:33:00,
2013-01-03 07:43:00,26.0,0.0,-100.00,WSW,255,16.0,22.0,32,0.00,,,0.00,0.000000,,2013-01-03 14:43:00,
2013-01-03 07:53:00,26.0,0.0,-100.00,WSW,255,16.0,22.0,32,0.00,,,0.00,0.000000,,2013-01-03 14:53:00,
2013-01-03 08:01:00,29.0,-3.0,-100.00,WSW,246,19.0,24.0,24,0.00,,,0.00,5.000000,,2013-01-03 15:01:00,
2013-01-03 08:34:00,29.0,-3.0,-100.00,WSW,246,19.0,24.0,24,0.00,,,0.00,5.000000,,2013-01-03 15:34:00,
2013-01-03 08:43:00,29.0,-3.0,-100.00,WSW,246,19.0,24.0,24,0.00,,,0.00,5.000000,,2013-01-03 15:43:00,
2013-01-03 08:53:00,29.0,-3.0,-100.00,WSW,246,19.0,24.0,24,0.00,,,0.00,5.000000,,2013-01-03 15:53:00,
2013-01-03 09:01:00,31.0,-3.0,-100.00,WSW,239,17.0,21.0,22,0.00,,,0.00,104.000000,,2013-01-03 16:01:00,
2013-01-03 09:23:00,31.0,-3.0,-100.00,WSW,239,17.0,21.0,22,0.00,,,0.00,104.000000,,2013-01-03 16:23:00,
2013-01-03 09:34:00,31.0,-3.0,-100.00,WSW,239,17.0,21.0,22,0.00,,,0.00,104.000000,,2013-01-03 16:34:00,
2013-01-03 09:43:00,31.0,-3.0,-100.00,WSW,239,17.0,21.0,22,0.00,,,0.00,104.000000,,2013-01-03 16:43:00,
2013-01-03 09:53:00,31.0,-3.0,-100.00,WSW,239,17.0,21.0,22,0.00,,,0.00,104.000000,,2013-01-03 16:53:00,
2013-01-03 10:01:00,36.0,-5.0,-100.00,WSW,248,16.0,21.0,17,0.00,,,0.00,244.000000,,2013-01-03 17:01:00,
2013-01-03 10:23:00,36.0,-5.0,-100.00,WSW,248,16.0,21.0,17,0.00,,,0.00,244.000000,,2013-01-03 17:23:00,
2013-01-03 10:33:00,36.0,-5.0,-100.00,WSW,248,16.0,21.0,17,0.00,,,0.00,244.000000,,2013-01-03 17:33:00,
2013-01-03 10:43:00,36.0,-5.0,-100.00,WSW,248,16.0,21.0,17,0.00,,,0.00,244.000000,,2013-01-03 17:43:00,
2013-01-03 10:53:00,36.0,-5.0,-100.00,WSW,248,16.0,21.0,17,0.00,,,0.00,244.000000,,2013-01-03 17:53:00,
2013-01-03 11:01:00,40.0,-5.0,-100.00,WSW,244,13.0,21.0,14,0.00,,,0.00,351.000000,,2013-01-03 18:01:00,
2013-01-03 11:23:00,40.0,-5.0,-100.00,WSW,244,13.0,21.0,14,0.00,,,0.00,351.000000,,2013-01-03 18:23:00,
2013-01-03 11:33:00,40.0,-5.0,-100.00,WSW,244,13.0,21.0,14,0.00,,,0.00,351.000000,,2013-01-03 18:33:00,
2013-01-03 11:43:00,40.0,-5.0,-100.00,WSW,244,13.0,21.0,14,0.00,,,0.00,351.000000,,2013-01-03 18:43:00,
2013-01-03 11:53:00,40.0,-5.0,-100.00,WSW,244,13.0,21.0,14,0.00,,,0.00,351.000000,,2013-01-03 18:53:00,
2013-01-03 12:01:00,42.0,-4.0,-100.00,West,262,11.0,20.0,14,0.00,,,0.00,403.000000,,2013-01-03 19:01:00,
2013-01-03 12:56:00,42.0,-4.0,-100.00,West,262,11.0,20.0,14,0.00,,,0.00,403.000000,,2013-01-03 19:56:00,
2013-01-03 13:01:00,43.0,-4.0,-100.00,WSW,254,16.0,23.0,13,0.00,,,0.00,414.000000,,2013-01-03 20:01:00,
2013-01-03 13:23:00,43.0,-4.0,-100.00,WSW,254,16.0,23.0,13,0.00,,,0.00,414.000000,,2013-01-03 20:23:00,
2013-01-03 13:33:00,43.0,-4.0,-100.00,WSW,254,16.0,23.0,13,0.00,,,0.00,414.000000,,2013-01-03 20:33:00,
2013-01-03 13:43:00,43.0,-4.0,-100.00,WSW,254,16.0,23.0,13,0.00,,,0.00,414.000000,,2013-01-03 20:43:00,
2013-01-03 13:53:00,43.0,-4.0,-100.00,WSW,254,16.0,23.0,13,0.00,,,0.00,414.000000,,2013-01-03 20:53:00,
2013-01-03 14:01:00,43.0,-4.0,-100.00,WSW,255,15.0,20.0,13,0.00,,,0.00,368.000000,,2013-01-03 21:01:00,
2013-01-03 14:37:00,43.0,-4.0,-100.00,WSW,255,15.0,20.0,13,0.00,,,0.00,368.000000,,2013-01-03 21:37:00,
2013-01-03 14:50:00,43.0,-4.0,-100.00,WSW,255,15.0,20.0,13,0.00,,,0.00,368.000000,,2013-01-03 21:50:00,
2013-01-03 15:01:00,41.0,-2.0,-100.00,WSW,253,19.0,23.0,16,0.00,,,0.00,274.000000,,2013-01-03 22:01:00,
2013-01-03 15:33:00,41.0,-2.0,-100.00,WSW,253,19.0,23.0,16,0.00,,,0.00,274.000000,,2013-01-03 22:33:00,
2013-01-03 15:43:00,41.0,-2.0,-100.00,WSW,253,19.0,23.0,16,0.00,,,0.00,274.000000,,2013-01-03 22:43:00,
2013-01-03 15:52:00,41.0,-2.0,-100.00,WSW,253,19.0,23.0,16,0.00,,,0.00,274.000000,,2013-01-03 22:52:00,
2013-01-03 16:01:00,38.0,-1.0,-100.00,West,270,18.0,24.0,19,0.00,,,0.00,123.000000,,2013-01-03 23:01:00,
2013-01-03 16:33:00,38.0,-1.0,-100.00,West,270,18.0,24.0,19,0.00,,,0.00,123.000000,,2013-01-03 23:33:00,
2013-01-03 16:43:00,38.0,-1.0,-100.00,West,270,18.0,24.0,19,0.00,,,0.00,123.000000,,2013-01-03 23:43:00,
2013-01-03 16:53:00,38.0,-1.0,-100.00,West,270,18.0,24.0,19,0.00,,,0.00,123.000000,,2013-01-03 23:53:00,
2013-01-03 17:01:00,35.0,-3.0,-100.00,WSW,251,23.0,27.0,19,0.00,,,0.00,15.000000,,2013-01-04 00:01:00,
2013-01-03 17:23:00,35.0,-3.0,-100.00,WSW,251,23.0,27.0,19,0.00,,,0.00,15.000000,,2013-01-04 00:23:00,
2013-01-03 17:33:00,35.0,-3.0,-100.00,WSW,251,23.0,27.0,19,0.00,,,0.00,15.000000,,2013-01-04 00:33:00,
2013-01-03 17:42:00,35.0,-3.0,-100.00,WSW,251,23.0,27.0,19,0.00,,,0.00,15.000000,,2013-01-04 00:42:00,
2013-01-03 17:53:00,35.0,-3.0,-100.00,WSW,251,23.0,27.0,19,0.00,,,0.00,15.000000,,2013-01-04 00:53:00,
2013-01-03 18:01:00,34.0,1.0,-100.00,West,263,20.0,30.0,24,0.00,,,0.00,0.000000,,2013-01-04 01:01:00,
2013-01-03 18:33:00,34.0,1.0,-100.00,West,263,20.0,30.0,24,0.00,,,0.00,0.000000,,2013-01-04 01:33:00,
2013-01-03 18:42:00,34.0,1.0,-100.00,West,263,20.0,30.0,24,0.00,,,0.00,0.000000,,2013-01-04 01:42:00,
2013-01-03 18:52:00,34.0,1.0,-100.00,West,263,20.0,30.0,24,0.00,,,0.00,0.000000,,2013-01-04 01:52:00,
2013-01-03 19:01:00,36.0,0.0,-100.00,West,276,20.0,29.0,21,0.00,,,0.00,0.000000,,2013-01-04 02:01:00,
2013-01-03 19:22:00,36.0,0.0,-100.00,West,276,20.0,29.0,21,0.00,,,0.00,0.000000,,2013-01-04 02:22:00,
2013-01-03 19:33:00,36.0,0.0,-100.00,West,276,20.0,29.0,21,0.00,,,0.00,0.000000,,2013-01-04 02:33:00,
2013-01-03 19:42:00,36.0,0.0,-100.00,West,276,20.0,29.0,21,0.00,,,0.00,0.000000,,2013-01-04 02:42:00,
2013-01-03 19:53:00,36.0,0.0,-100.00,West,276,20.0,29.0,21,0.00,,,0.00,0.000000,,2013-01-04 02:53:00,
2013-01-03 20:01:00,37.0,1.0,-100.00,West,274,18.0,29.0,21,0.00,,,0.00,0.000000,,2013-01-04 03:01:00,
2013-01-03 20:33:00,37.0,1.0,-100.00,West,274,18.0,29.0,21,0.00,,,0.00,0.000000,,2013-01-04 03:33:00,
2013-01-03 20:43:00,37.0,1.0,-100.00,West,274,18.0,29.0,21,0.00,,,0.00,0.000000,,2013-01-04 03:43:00,
2013-01-03 20:53:00,37.0,1.0,-100.00,West,274,18.0,29.0,21,0.00,,,0.00,0.000000,,2013-01-04 03:53:00,
2013-01-03 21:01:00,38.0,-1.0,-100.00,West,273,21.0,26.0,19,0.00,,,0.00,0.000000,,2013-01-04 04:01:00,
2013-01-03 21:32:00,38.0,-1.0,-100.00,West,273,21.0,26.0,19,0.00,,,0.00,0.000000,,2013-01-04 04:32:00,
2013-01-03 21:42:00,38.0,-1.0,-100.00,West,273,21.0,26.0,19,0.00,,,0.00,0.000000,,2013-01-04 04:42:00,
2013-01-03 21:52:00,38.0,-1.0,-100.00,West,273,21.0,26.0,19,0.00,,,0.00,0.000000,,2013-01-04 04:52:00,
2013-01-03 22:01:00,37.0,0.0,-100.00,West,266,15.0,25.0,20,0.00,,,0.00,0.000000,,2013-01-04 05:01:00,
2013-01-03 22:33:00,37.0,0.0,-100.00,West,266,15.0,25.0,20,0.00,,,0.00,0.000000,,2013-01-04 05:33:00,
2013-01-03 22:42:00,37.0,0.0,-100.00,West,266,15.0,25.0,20,0.00,,,0.00,0.000000,,2013-01-04 05:42:00,
2013-01-03 22:53:00,37.0,0.0,-100.00,West,266,15.0,25.0,20,0.00,,,0.00,0.000000,,2013-01-04 05:53:00,
2013-01-03 23:01:00,37.0,0.0,-100.00,WSW,254,13.0,21.0,20,0.00,,,0.00,0.000000,,2013-01-04 06:01:00,
2013-01-03 23:33:00,37.0,0.0,-100.00,WSW,254,13.0,21.0,20,0.00,,,0.00,0.000000,,2013-01-04 06:33:00,
2013-01-03 23:42:00,37.0,0.0,-100.00,WSW,254,13.0,21.0,20,0.00,,,0.00,0.000000,,2013-01-04 06:42:00,
2013-01-03 23:52:00,37.0,0.0,-100.00,WSW,254,13.0,21.0,20,0.00,,,0.00,0.000000,,2013-01-04 06:52:00,